AIZ108 LGRP-LLBG

Flight info

Callsign AIZ108
Flight time 1h 5m
Altitude 33000
Route NILAS UL609 ALKIS DCT MAROS DCT APLON L609 ZUKKO
Aircraft A21N/M-SDE2E3FGHIRWXY/LB1

Departure

Time 2026-05-06 16:35
Airport Rhodes International Airport "Diagoras" (LGRP)

Arrival

Time 2026-05-06 17:41
Airport Ben Gurion International Airport (LLBG)
Time Latitude Longitude Altitude Speed Heading
2026-05-06 16:16 36.40389 28.09185 31 ft 0 kts 160°
2026-05-06 16:17 36.40380 28.09184 32 ft 0 kts 160°
2026-05-06 16:29 36.40398 28.09176 32 ft 4 kts 160°
2026-05-06 16:29 36.40418 28.09167 29 ft 4 kts 150°
2026-05-06 16:29 36.40434 28.09145 32 ft 4 kts 98°
2026-05-06 16:30 36.40433 28.09117 32 ft 2 kts 71°
2026-05-06 16:30 36.40437 28.09132 32 ft 4 kts 69°
2026-05-06 16:30 36.40440 28.09140 31 ft 0 kts 70°
2026-05-06 16:32 36.40440 28.09141 31 ft 1 kts 70°
2026-05-06 16:32 36.40446 28.09160 31 ft 4 kts 70°
2026-05-06 16:32 36.40460 28.09207 32 ft 8 kts 70°
2026-05-06 16:33 36.40504 28.09329 31 ft 25 kts 52°
2026-05-06 16:33 36.40605 28.09468 32 ft 16 kts 68°
2026-05-06 16:33 36.40668 28.09690 29 ft 32 kts 69°
2026-05-06 16:34 36.40833 28.10260 25 ft 37 kts 69°
2026-05-06 16:34 36.40895 28.10419 27 ft 15 kts 36°
2026-05-06 16:34 36.40966 28.10414 27 ft 10 kts 323°
2026-05-06 16:34 36.41025 28.10340 28 ft 10 kts 311°
2026-05-06 16:35 36.41026 28.10290 30 ft 6 kts 249°
2026-05-06 16:35 36.40922 28.09939 25 ft 87 kts 250°
2026-05-06 16:35 36.40611 28.08890 143 ft 156 kts 249°
2026-05-06 16:35 36.40231 28.07619 1082 ft 158 kts 249°
2026-05-06 16:36 36.39437 28.06671 2126 ft 167 kts 208°
2026-05-06 16:36 36.38305 28.06241 3153 ft 172 kts 192°
2026-05-06 16:36 36.37077 28.06026 3971 ft 190 kts 184°
2026-05-06 16:36 36.35717 28.06479 4413 ft 221 kts 146°
2026-05-06 16:37 36.34535 28.07833 5182 ft 243 kts 126°
2026-05-06 16:37 36.33542 28.09603 6161 ft 259 kts 118°
2026-05-06 16:37 36.32600 28.11586 7265 ft 273 kts 117°
2026-05-06 16:37 36.31622 28.13651 8471 ft 283 kts 118°
2026-05-06 16:38 36.30563 28.15761 9707 ft 294 kts 120°
2026-05-06 16:38 36.29404 28.17928 10670 ft 312 kts 122°
2026-05-06 16:38 36.28118 28.20223 11250 ft 341 kts 123°
2026-05-06 16:38 36.26694 28.22675 12156 ft 357 kts 124°
2026-05-06 16:39 36.25205 28.25194 13225 ft 367 kts 124°
2026-05-06 16:39 36.23672 28.27774 14256 ft 376 kts 124°
2026-05-06 16:39 36.22108 28.30407 15256 ft 383 kts 124°
2026-05-06 16:39 36.20520 28.33089 16265 ft 390 kts 124°
2026-05-06 16:40 36.18902 28.35829 17282 ft 396 kts 124°
2026-05-06 16:40 36.17260 28.38613 18261 ft 404 kts 125°
2026-05-06 16:40 36.15589 28.41449 19086 ft 411 kts 125°
2026-05-06 16:40 36.13891 28.44331 19927 ft 417 kts 125°
2026-05-06 16:41 36.12171 28.47248 20746 ft 423 kts 125°
2026-05-06 16:41 36.10445 28.50172 21546 ft 429 kts 125°
2026-05-06 16:41 36.08672 28.53173 22345 ft 435 kts 125°
2026-05-06 16:41 36.06869 28.56222 23168 ft 440 kts 125°
2026-05-06 16:42 36.05048 28.59297 23891 ft 446 kts 125°
2026-05-06 16:42 36.03200 28.62416 24492 ft 452 kts 125°
2026-05-06 16:42 36.01328 28.65573 25099 ft 458 kts 125°
2026-05-06 16:42 35.99457 28.68725 25699 ft 463 kts 125°
2026-05-06 16:43 35.97539 28.71952 26264 ft 468 kts 125°
2026-05-06 16:43 35.95607 28.75200 26817 ft 473 kts 125°
2026-05-06 16:43 35.93646 28.78495 27352 ft 478 kts 125°
2026-05-06 16:43 35.91661 28.81826 27891 ft 483 kts 125°
2026-05-06 16:44 35.89670 28.85165 28389 ft 487 kts 125°
2026-05-06 16:44 35.87653 28.88542 28915 ft 491 kts 125°
2026-05-06 16:44 35.85613 28.91956 29396 ft 496 kts 125°
2026-05-06 16:44 35.83558 28.95390 29871 ft 500 kts 125°
2026-05-06 16:45 35.81478 28.98864 30274 ft 505 kts 125°
2026-05-06 16:45 35.79409 29.02315 30727 ft 507 kts 125°
2026-05-06 16:45 35.77314 29.05806 31336 ft 505 kts 126°
2026-05-06 16:45 35.75228 29.09278 31925 ft 503 kts 126°
2026-05-06 16:46 35.73150 29.12734 32507 ft 502 kts 126°
2026-05-06 16:46 35.71070 29.16189 32943 ft 503 kts 126°
2026-05-06 16:46 35.68995 29.19634 33063 ft 501 kts 126°
2026-05-06 16:47 35.64841 29.26519 33070 ft 502 kts 126°
2026-05-06 16:47 35.60641 29.33467 33075 ft 516 kts 127°
2026-05-06 16:48 35.56292 29.40646 33072 ft 526 kts 127°
2026-05-06 16:48 35.51919 29.47850 33060 ft 526 kts 127°
2026-05-06 16:49 35.47549 29.55037 33074 ft 525 kts 127°
2026-05-06 16:49 35.43173 29.62216 33069 ft 525 kts 127°
2026-05-06 16:50 35.38821 29.69342 33070 ft 526 kts 127°
2026-05-06 16:50 35.34426 29.76522 33072 ft 526 kts 127°
2026-05-06 16:51 35.30035 29.83683 33082 ft 526 kts 127°
2026-05-06 16:51 35.25630 29.90850 33073 ft 527 kts 127°
2026-05-06 16:52 35.21215 29.98021 33073 ft 527 kts 127°
2026-05-06 16:52 35.16723 30.05112 33075 ft 527 kts 129°
2026-05-06 16:53 35.12156 30.12067 33063 ft 527 kts 130°
2026-05-06 16:53 35.07555 30.19043 33072 ft 526 kts 130°
2026-05-06 16:54 35.02967 30.26013 33073 ft 526 kts 130°
2026-05-06 16:54 34.98387 30.32975 33072 ft 526 kts 130°
2026-05-06 16:55 34.93797 30.39944 33088 ft 526 kts 130°
2026-05-06 16:55 34.89199 30.46909 33075 ft 528 kts 130°
2026-05-06 16:56 34.84620 30.53831 33073 ft 528 kts 130°
2026-05-06 16:56 34.80006 30.60793 33081 ft 528 kts 130°
2026-05-06 16:57 34.75385 30.67750 33077 ft 528 kts 130°
2026-05-06 16:57 34.70773 30.74681 33075 ft 526 kts 130°
2026-05-06 16:58 34.66162 30.81596 33080 ft 525 kts 130°
2026-05-06 16:58 34.61594 30.88446 33080 ft 525 kts 130°
2026-05-06 16:59 34.57123 30.95477 33087 ft 526 kts 128°
2026-05-06 16:59 34.52724 31.02576 33080 ft 526 kts 128°
2026-05-06 17:00 34.48309 31.09677 33082 ft 526 kts 128°
2026-05-06 17:00 34.43913 31.16696 33083 ft 526 kts 129°
2026-05-06 17:01 34.39469 31.23761 33081 ft 526 kts 129°
2026-05-06 17:01 34.35746 31.29668 33080 ft 527 kts 129°
2026-05-06 17:02 34.31325 31.36670 33083 ft 525 kts 129°
2026-05-06 17:02 34.26885 31.43689 33083 ft 524 kts 129°
2026-05-06 17:03 34.22451 31.50685 33083 ft 524 kts 129°
2026-05-06 17:03 34.18031 31.57646 33084 ft 525 kts 129°
2026-05-06 17:04 34.13579 31.64644 33081 ft 526 kts 129°
2026-05-06 17:04 34.09121 31.71637 33084 ft 526 kts 129°
2026-05-06 17:05 34.04659 31.78625 33083 ft 526 kts 129°
2026-05-06 17:05 34.00190 31.85607 33083 ft 526 kts 129°
2026-05-06 17:06 33.95714 31.92590 33080 ft 526 kts 129°
2026-05-06 17:06 33.91224 31.99579 33083 ft 526 kts 130°
2026-05-06 17:07 33.86739 32.06543 33084 ft 526 kts 130°
2026-05-06 17:07 33.82204 32.13391 33086 ft 526 kts 131°
2026-05-06 17:08 33.77598 32.20044 40864 ft 487 kts 134°
2026-05-06 17:08 33.75484 32.23030 42138 ft 450 kts 133°
2026-05-06 17:08 33.73572 32.25852 42626 ft 424 kts 133°
2026-05-06 17:08 33.71753 32.28593 42256 ft 419 kts 132°
2026-05-06 17:09 33.69914 32.31366 41351 ft 429 kts 132°
2026-05-06 17:09 33.68046 32.34172 40569 ft 436 kts 132°
2026-05-06 17:09 33.66143 32.37022 39971 ft 437 kts 133°
2026-05-06 17:09 33.64248 32.39851 39515 ft 434 kts 133°
2026-05-06 17:10 33.62360 32.42665 39109 ft 430 kts 133°
2026-05-06 17:10 33.60491 32.45444 38714 ft 426 kts 133°
2026-05-06 17:10 33.58637 32.48195 38208 ft 423 kts 133°
2026-05-06 17:10 33.56788 32.50934 37656 ft 420 kts 133°
2026-05-06 17:11 33.54957 32.53644 36811 ft 418 kts 133°
2026-05-06 17:11 33.53115 32.56364 35847 ft 421 kts 132°
2026-05-06 17:11 33.51269 32.59088 35011 ft 421 kts 132°
2026-05-06 17:11 33.49428 32.61805 34273 ft 419 kts 132°
2026-05-06 17:12 33.47601 32.64501 33546 ft 414 kts 132°
2026-05-06 17:12 33.45801 32.67160 32955 ft 410 kts 132°
2026-05-06 17:12 33.43959 32.69870 32880 ft 425 kts 132°
2026-05-06 17:12 33.42066 32.72650 33056 ft 436 kts 132°
2026-05-06 17:13 33.40146 32.75467 33092 ft 450 kts 132°
2026-05-06 17:13 33.38138 32.78414 33089 ft 464 kts 132°
2026-05-06 17:13 33.36069 32.81448 33088 ft 477 kts 131°
2026-05-06 17:13 33.33943 32.84569 33090 ft 490 kts 131°
2026-05-06 17:14 33.31758 32.87773 33088 ft 502 kts 131°
2026-05-06 17:14 33.29521 32.91052 33088 ft 514 kts 131°
2026-05-06 17:14 33.27238 32.94397 33083 ft 523 kts 131°
2026-05-06 17:15 33.22629 33.01144 33085 ft 524 kts 131°
2026-05-06 17:15 33.18050 33.07924 33086 ft 525 kts 130°
2026-05-06 17:16 33.13578 33.14819 33078 ft 524 kts 129°
2026-05-06 17:16 33.09146 33.21703 33081 ft 522 kts 130°
2026-05-06 17:17 33.04732 33.28518 33081 ft 522 kts 130°
2026-05-06 17:17 33.00282 33.35351 33080 ft 522 kts 130°
2026-05-06 17:18 32.95822 33.42180 33083 ft 522 kts 130°
2026-05-06 17:18 32.93600 33.45579 32924 ft 516 kts 130°
2026-05-06 17:18 32.91409 33.48930 32083 ft 510 kts 130°
2026-05-06 17:18 32.89214 33.52283 30753 ft 517 kts 131°
2026-05-06 17:19 32.87001 33.55656 29352 ft 515 kts 131°
2026-05-06 17:19 32.84827 33.58974 27836 ft 500 kts 131°
2026-05-06 17:19 32.82714 33.62123 26369 ft 487 kts 134°
2026-05-06 17:19 32.80456 33.65055 24968 ft 474 kts 137°
2026-05-06 17:20 32.78352 33.67666 23718 ft 463 kts 138°
2026-05-06 17:20 32.76137 33.70392 22191 ft 452 kts 138°
2026-05-06 17:20 32.73979 33.73044 20710 ft 441 kts 138°
2026-05-06 17:20 32.71873 33.75634 19297 ft 431 kts 137°
2026-05-06 17:21 32.69805 33.78174 17919 ft 426 kts 137°
2026-05-06 17:21 32.67755 33.80691 17005 ft 421 kts 137°
2026-05-06 17:21 32.65741 33.83166 16232 ft 412 kts 137°
2026-05-06 17:21 32.63763 33.85596 15437 ft 405 kts 136°
2026-05-06 17:22 32.61817 33.87985 14650 ft 399 kts 136°
2026-05-06 17:22 32.59905 33.90331 13872 ft 393 kts 136°
2026-05-06 17:22 32.58016 33.92646 12996 ft 387 kts 136°
2026-05-06 17:22 32.56161 33.94925 12159 ft 381 kts 135°
2026-05-06 17:23 32.54370 33.97153 11329 ft 375 kts 135°
2026-05-06 17:23 32.52588 33.99380 10549 ft 369 kts 135°
2026-05-06 17:23 32.50833 34.01568 9739 ft 363 kts 135°
2026-05-06 17:23 32.48913 34.03450 8821 ft 356 kts 151°
2026-05-06 17:24 32.46617 34.04414 7948 ft 348 kts 173°
2026-05-06 17:24 32.44230 34.04295 7338 ft 343 kts 195°
2026-05-06 17:24 32.42112 34.03129 7055 ft 327 kts 218°
2026-05-06 17:24 32.40681 34.01237 6999 ft 294 kts 243°
2026-05-06 17:25 32.40128 33.99028 6999 ft 274 kts 269°
2026-05-06 17:25 32.40470 33.96854 7003 ft 270 kts 296°
2026-05-06 17:25 32.41513 33.95025 7006 ft 269 kts 310°
2026-05-06 17:25 32.42769 33.93377 7003 ft 270 kts 315°
2026-05-06 17:26 32.44342 33.92203 7004 ft 270 kts 341°
2026-05-06 17:26 32.46179 33.92013 7007 ft 272 kts
2026-05-06 17:26 32.47927 33.92849 7008 ft 275 kts 34°
2026-05-06 17:26 32.49181 33.94555 7007 ft 279 kts 61°
2026-05-06 17:27 32.49906 33.96690 7004 ft 281 kts 72°
2026-05-06 17:27 32.50173 33.98991 7003 ft 284 kts 91°
2026-05-06 17:27 32.49726 34.01266 7003 ft 286 kts 117°
2026-05-06 17:27 32.48603 34.03215 7006 ft 287 kts 128°
2026-05-06 17:28 32.47338 34.05050 7001 ft 288 kts 129°
2026-05-06 17:28 32.46060 34.06876 7001 ft 288 kts 129°
2026-05-06 17:28 32.44789 34.08713 7001 ft 288 kts 128°
2026-05-06 17:28 32.43529 34.10554 7002 ft 288 kts 128°
2026-05-06 17:29 32.42335 34.12459 6998 ft 288 kts 124°
2026-05-06 17:29 32.41196 34.14412 6996 ft 287 kts 123°
2026-05-06 17:29 32.40085 34.16348 6995 ft 287 kts 123°
2026-05-06 17:29 32.38964 34.18305 6997 ft 288 kts 123°
2026-05-06 17:30 32.37841 34.20266 6997 ft 288 kts 123°
2026-05-06 17:30 32.36704 34.22251 6997 ft 288 kts 123°
2026-05-06 17:30 32.35596 34.24184 7000 ft 286 kts 123°
2026-05-06 17:30 32.34479 34.26130 6999 ft 286 kts 123°
2026-05-06 17:31 32.33363 34.28073 7000 ft 285 kts 123°
2026-05-06 17:31 32.32249 34.30014 6999 ft 285 kts 123°
2026-05-06 17:31 32.31134 34.31954 6998 ft 285 kts 123°
2026-05-06 17:31 32.30020 34.33892 6855 ft 282 kts 123°
2026-05-06 17:32 32.28936 34.35775 6343 ft 279 kts 123°
2026-05-06 17:32 32.27849 34.37666 5737 ft 278 kts 123°
2026-05-06 17:32 32.26766 34.39548 5223 ft 275 kts 124°
2026-05-06 17:32 32.25688 34.41422 5021 ft 276 kts 123°
2026-05-06 17:33 32.24607 34.43297 4989 ft 277 kts 123°
2026-05-06 17:33 32.23521 34.45178 4996 ft 277 kts 124°
2026-05-06 17:33 32.22433 34.47058 4993 ft 276 kts 123°
2026-05-06 17:33 32.21357 34.48915 4987 ft 266 kts 124°
2026-05-06 17:34 32.20337 34.50671 4990 ft 254 kts 124°
2026-05-06 17:34 32.19342 34.52384 4997 ft 253 kts 124°
2026-05-06 17:34 32.18346 34.54096 4992 ft 253 kts 124°
2026-05-06 17:34 32.17348 34.55813 4994 ft 254 kts 124°
2026-05-06 17:35 32.16372 34.57543 4993 ft 253 kts 122°
2026-05-06 17:35 32.15444 34.59303 4664 ft 250 kts 121°
2026-05-06 17:35 32.14570 34.61039 4200 ft 249 kts 120°
2026-05-06 17:36 32.12829 34.64578 3223 ft 249 kts 119°
2026-05-06 17:36 32.11960 34.66298 3003 ft 238 kts 120°
2026-05-06 17:36 32.11129 34.67922 2980 ft 227 kts 120°
2026-05-06 17:36 32.10312 34.69512 2987 ft 227 kts 120°
2026-05-06 17:37 32.09494 34.71101 2961 ft 226 kts 120°
2026-05-06 17:37 32.08678 34.72686 2588 ft 227 kts 120°
2026-05-06 17:37 32.07860 34.74269 2261 ft 224 kts 120°
2026-05-06 17:37 32.07077 34.75779 2064 ft 205 kts 120°
2026-05-06 17:38 32.06394 34.77093 1977 ft 176 kts 120°
2026-05-06 17:38 32.05800 34.78232 1935 ft 152 kts 120°
2026-05-06 17:38 32.05259 34.79267 1687 ft 144 kts 120°
2026-05-06 17:38 32.04754 34.80229 1452 ft 134 kts 120°
2026-05-06 17:39 32.04268 34.81151 1254 ft 132 kts 119°
2026-05-06 17:39 32.03793 34.82077 1068 ft 131 kts 119°
2026-05-06 17:39 32.03319 34.82981 890 ft 132 kts 119°
2026-05-06 17:39 32.02844 34.83908 734 ft 132 kts 117°
2026-05-06 17:40 32.02377 34.84833 565 ft 131 kts 118°
2026-05-06 17:40 32.01900 34.85738 354 ft 129 kts 121°
2026-05-06 17:40 32.01432 34.86647 167 ft 129 kts 120°
2026-05-06 17:40 32.00996 34.87495 124 ft 107 kts 121°
2026-05-06 17:41 32.00704 34.88059 120 ft 54 kts 122°
2026-05-06 17:41 32.00543 34.88369 120 ft 32 kts 123°
2026-05-06 17:41 32.00424 34.88554 122 ft 21 kts 138°
2026-05-06 17:41 32.00334 34.88628 121 ft 7 kts 150°
2026-05-06 17:42 32.00281 34.88661 124 ft 10 kts 155°
2026-05-06 17:42 32.00271 34.88667 123 ft 0 kts 155°
2026-05-06 17:42 32.00219 34.88692 120 ft 15 kts 161°
2026-05-06 17:42 32.00138 34.88686 119 ft 10 kts 185°
2026-05-06 17:43 32.00100 34.88647 120 ft 10 kts 265°
2026-05-06 17:43 32.00152 34.88533 119 ft 30 kts 301°
2026-05-06 17:43 32.00270 34.88309 121 ft 33 kts 302°
2026-05-06 17:43 32.00402 34.88055 119 ft 37 kts 301°
2026-05-06 17:44 32.00537 34.87794 119 ft 23 kts 301°
2026-05-06 17:44 32.00621 34.87633 119 ft 24 kts 302°
2026-05-06 17:44 32.00648 34.87542 120 ft 0 kts 257°
2026-05-06 17:45 32.00646 34.87540 121 ft 1 kts 223°
2026-05-06 17:45 32.00627 34.87532 119 ft 4 kts 208°
2026-05-06 17:45 32.00612 34.87516 121 ft 3 kts 234°
2026-05-06 17:45 32.00605 34.87502 119 ft 2 kts 237°
2026-05-06 17:46 32.00604 34.87500 119 ft 0 kts 239°